DAL1194 KLAX-KSLC

Flight info

Callsign DAL1194
Flight time N/A
Altitude 35000
Route ORCKA5 LAS Q70 BLIPP Q842 WINEN MLF PITTT2
Aircraft A21N/M-SDE2E3FGHIRWXY/LB1

Departure

Time N/A
Airport Los Angeles International Airport (KLAX)

Arrival

Time 2026-05-05 20:32
Airport Salt Lake City International Airport (KSLC)
Time Latitude Longitude Altitude Speed Heading
2026-05-05 19:39 36.49157 -114.71982 34822 ft 444 kts 35°
2026-05-05 19:40 36.54215 -114.67575 34822 ft 444 kts 35°
2026-05-05 19:40 36.59246 -114.63125 34829 ft 444 kts 35°
2026-05-05 19:41 36.64268 -114.58661 34826 ft 443 kts 36°
2026-05-05 19:41 36.69291 -114.54193 34828 ft 444 kts 36°
2026-05-05 19:42 36.74304 -114.49720 34828 ft 439 kts 36°
2026-05-05 19:42 36.79234 -114.45300 34825 ft 436 kts 36°
2026-05-05 19:43 36.84160 -114.40900 34828 ft 436 kts 36°
2026-05-05 19:43 36.89082 -114.36491 34825 ft 436 kts 36°
2026-05-05 19:44 36.94019 -114.32053 34834 ft 437 kts 36°
2026-05-05 19:44 36.98951 -114.27627 34830 ft 437 kts 36°
2026-05-05 19:45 37.03848 -114.23218 34832 ft 428 kts 36°
2026-05-05 19:45 37.08687 -114.18856 34836 ft 429 kts 36°
2026-05-05 19:46 37.13486 -114.14497 34835 ft 429 kts 36°
2026-05-05 19:46 37.18320 -114.10109 34834 ft 429 kts 36°
2026-05-05 19:47 37.23183 -114.05696 34830 ft 429 kts 36°
2026-05-05 19:47 37.28031 -114.01288 34826 ft 431 kts 36°
2026-05-05 19:48 37.32785 -113.96960 34832 ft 422 kts 37°
2026-05-05 19:48 37.37544 -113.92644 34835 ft 422 kts 36°
2026-05-05 19:49 37.42304 -113.88322 34831 ft 422 kts 36°
2026-05-05 19:49 37.47053 -113.83985 34834 ft 422 kts 37°
2026-05-05 19:50 37.51796 -113.79633 34833 ft 422 kts 37°
2026-05-05 19:50 37.56534 -113.75291 34832 ft 419 kts 37°
2026-05-05 19:51 37.61209 -113.70999 34821 ft 416 kts 37°
2026-05-05 19:51 37.65885 -113.66703 34826 ft 416 kts 37°
2026-05-05 19:52 37.70556 -113.62396 34818 ft 416 kts 37°
2026-05-05 19:52 37.75230 -113.58084 34808 ft 416 kts 37°
2026-05-05 19:53 37.79904 -113.53767 34799 ft 416 kts 37°
2026-05-05 19:53 37.84562 -113.49456 34790 ft 410 kts 37°
2026-05-05 19:54 37.88386 -113.45903 34786 ft 410 kts 37°
2026-05-05 19:54 37.92992 -113.41634 34794 ft 411 kts 37°
2026-05-05 19:55 37.97621 -113.37327 34787 ft 414 kts 37°
2026-05-05 19:55 38.02259 -113.33004 34785 ft 414 kts 37°
2026-05-05 19:56 38.06899 -113.28674 34784 ft 414 kts 37°
2026-05-05 19:56 38.11520 -113.24359 34778 ft 410 kts 37°
2026-05-05 19:57 38.16102 -113.20067 34811 ft 409 kts 37°
2026-05-05 19:57 38.20681 -113.15775 34835 ft 409 kts 37°
2026-05-05 19:58 38.25263 -113.11475 34857 ft 409 kts 37°
2026-05-05 19:58 38.29856 -113.07159 34880 ft 412 kts 37°
2026-05-05 19:59 38.34480 -113.02810 34910 ft 413 kts 36°
2026-05-05 19:59 38.39567 -112.99416 34909 ft 414 kts 24°
2026-05-05 20:00 38.44901 -112.96603 34895 ft 414 kts 24°
2026-05-05 20:00 38.50194 -112.93794 34892 ft 415 kts 24°
2026-05-05 20:01 38.55519 -112.90955 34881 ft 415 kts 24°
2026-05-05 20:01 38.60858 -112.88099 34795 ft 416 kts 24°
2026-05-05 20:02 38.66166 -112.85252 34799 ft 412 kts 24°
2026-05-05 20:02 38.71419 -112.82428 34777 ft 414 kts 24°
2026-05-05 20:03 38.76772 -112.79561 34779 ft 414 kts 24°
2026-05-05 20:03 38.82088 -112.76702 34769 ft 416 kts 24°
2026-05-05 20:04 38.87419 -112.73827 34769 ft 411 kts 24°
2026-05-05 20:04 38.92671 -112.70992 34771 ft 409 kts 24°
2026-05-05 20:05 38.97913 -112.68152 34766 ft 409 kts 24°
2026-05-05 20:05 39.03165 -112.65304 34765 ft 412 kts 24°
2026-05-05 20:06 39.08478 -112.62418 34771 ft 415 kts 24°
2026-05-05 20:06 39.13728 -112.59560 34761 ft 406 kts 24°
2026-05-05 20:07 39.18944 -112.56721 34762 ft 407 kts 24°
2026-05-05 20:07 39.24157 -112.53884 34767 ft 407 kts 24°
2026-05-05 20:08 39.29335 -112.51072 34768 ft 407 kts 23°
2026-05-05 20:08 39.32025 -112.49948 34595 ft 405 kts 17°
2026-05-05 20:08 39.34742 -112.49035 34143 ft 400 kts 17°
2026-05-05 20:08 39.37431 -112.48163 33492 ft 398 kts 17°
2026-05-05 20:09 39.40111 -112.47287 32766 ft 397 kts 17°
2026-05-05 20:09 39.42782 -112.46407 32060 ft 396 kts 17°
2026-05-05 20:09 39.45448 -112.45526 31356 ft 396 kts 17°
2026-05-05 20:09 39.48118 -112.44643 30671 ft 396 kts 15°
2026-05-05 20:10 39.50776 -112.43762 30019 ft 395 kts 15°
2026-05-05 20:10 39.53447 -112.42875 29225 ft 396 kts 15°
2026-05-05 20:10 39.56152 -112.41973 28444 ft 401 kts 15°
2026-05-05 20:10 39.58895 -112.41059 27804 ft 416 kts 15°
2026-05-05 20:11 39.61675 -112.40133 27125 ft 412 kts 15°
2026-05-05 20:11 39.64445 -112.39206 26430 ft 410 kts 15°
2026-05-05 20:11 39.67208 -112.38280 25742 ft 408 kts 15°
2026-05-05 20:11 39.69952 -112.37361 25088 ft 406 kts 15°
2026-05-05 20:12 39.72679 -112.36446 24438 ft 404 kts 15°
2026-05-05 20:12 39.75404 -112.35533 23776 ft 403 kts 15°
2026-05-05 20:12 39.78111 -112.34625 23053 ft 402 kts 14°
2026-05-05 20:12 39.80811 -112.33723 22326 ft 398 kts 14°
2026-05-05 20:13 39.83470 -112.32831 21633 ft 393 kts 14°
2026-05-05 20:13 39.86108 -112.31943 20949 ft 389 kts 14°
2026-05-05 20:13 39.88716 -112.31061 20314 ft 385 kts 14°
2026-05-05 20:13 39.91291 -112.30186 19697 ft 381 kts 14°
2026-05-05 20:14 39.93848 -112.29322 19124 ft 378 kts 14°
2026-05-05 20:14 39.96388 -112.28462 18571 ft 377 kts 15°
2026-05-05 20:14 39.98923 -112.27606 18007 ft 376 kts 14°
2026-05-05 20:14 40.01464 -112.26751 17390 ft 377 kts 14°
2026-05-05 20:15 40.03996 -112.25905 16856 ft 375 kts 14°
2026-05-05 20:15 40.06494 -112.25069 16467 ft 364 kts 14°
2026-05-05 20:15 40.08906 -112.24259 16211 ft 351 kts 14°
2026-05-05 20:15 40.11229 -112.23475 16001 ft 342 kts 14°
2026-05-05 20:16 40.13533 -112.22692 15796 ft 341 kts 14°
2026-05-05 20:16 40.15826 -112.21908 15612 ft 340 kts 14°
2026-05-05 20:16 40.18106 -112.21129 15423 ft 339 kts 14°
2026-05-05 20:16 40.20388 -112.20352 15233 ft 338 kts 14°
2026-05-05 20:17 40.22661 -112.19578 15044 ft 338 kts 14°
2026-05-05 20:17 40.24935 -112.18812 14857 ft 337 kts 13°
2026-05-05 20:17 40.27202 -112.18048 14673 ft 336 kts 13°
2026-05-05 20:17 40.29459 -112.17284 14489 ft 335 kts 14°
2026-05-05 20:18 40.31660 -112.16535 14308 ft 335 kts 13°
2026-05-05 20:18 40.33964 -112.15749 14124 ft 334 kts 14°
2026-05-05 20:18 40.36212 -112.14981 13950 ft 333 kts 13°
2026-05-05 20:18 40.38452 -112.14217 13876 ft 332 kts 14°
2026-05-05 20:19 40.40689 -112.13453 13805 ft 331 kts 14°
2026-05-05 20:19 40.42895 -112.12697 13612 ft 324 kts 13°
2026-05-05 20:19 40.45079 -112.11950 13397 ft 327 kts 13°
2026-05-05 20:19 40.47287 -112.11195 13220 ft 328 kts 13°
2026-05-05 20:20 40.49496 -112.10439 13005 ft 328 kts 13°
2026-05-05 20:20 40.51705 -112.09688 12761 ft 327 kts 13°
2026-05-05 20:20 40.53908 -112.08938 12531 ft 328 kts 13°
2026-05-05 20:20 40.56100 -112.08333 12344 ft 323 kts
2026-05-05 20:21 40.58342 -112.08123 12162 ft 324 kts
2026-05-05 20:21 40.60588 -112.07979 12009 ft 322 kts
2026-05-05 20:21 40.62830 -112.07849 11980 ft 322 kts 359°
2026-05-05 20:21 40.65047 -112.07984 11802 ft 316 kts 354°
2026-05-05 20:22 40.67219 -112.08238 11417 ft 309 kts 352°
2026-05-05 20:22 40.69327 -112.08494 11143 ft 298 kts 353°
2026-05-05 20:22 40.71342 -112.08734 10971 ft 283 kts 352°
2026-05-05 20:22 40.73312 -112.08968 10956 ft 286 kts 353°
2026-05-05 20:23 40.75284 -112.09200 10961 ft 282 kts 352°
2026-05-05 20:23 40.77256 -112.09436 10966 ft 287 kts 353°
2026-05-05 20:23 40.79228 -112.09673 10988 ft 284 kts 352°
2026-05-05 20:23 40.81204 -112.09907 10988 ft 287 kts 353°
2026-05-05 20:24 40.83181 -112.10141 10980 ft 283 kts 353°
2026-05-05 20:24 40.85136 -112.10373 10789 ft 278 kts 352°
2026-05-05 20:24 40.87035 -112.10598 10497 ft 271 kts 352°
2026-05-05 20:24 40.88899 -112.10817 10175 ft 267 kts 352°
2026-05-05 20:25 40.90734 -112.11036 9848 ft 263 kts 352°
2026-05-05 20:25 40.92561 -112.11253 9393 ft 264 kts 351°
2026-05-05 20:25 40.94393 -112.11472 8914 ft 265 kts 352°
2026-05-05 20:25 40.96231 -112.11690 8452 ft 266 kts 352°
2026-05-05 20:26 40.98090 -112.11541 7984 ft 273 kts 14°
2026-05-05 20:26 40.99754 -112.10361 7582 ft 273 kts 40°
2026-05-05 20:26 41.00813 -112.08368 7480 ft 260 kts 68°
2026-05-05 20:26 41.01216 -112.06130 7469 ft 241 kts 80°
2026-05-05 20:27 41.01384 -112.04033 7475 ft 216 kts 94°
2026-05-05 20:27 41.00901 -112.02127 7533 ft 222 kts 119°
2026-05-05 20:27 40.99896 -112.00638 7518 ft 217 kts 151°
2026-05-05 20:27 40.98533 -111.99885 7515 ft 211 kts 169°
2026-05-05 20:28 40.97105 -111.99562 7422 ft 207 kts 178°
2026-05-05 20:28 40.95679 -111.99429 7195 ft 206 kts 178°
2026-05-05 20:28 40.94276 -111.99271 6933 ft 198 kts 178°
2026-05-05 20:28 40.92957 -111.99116 6725 ft 183 kts 179°
2026-05-05 20:29 40.91728 -111.98973 6505 ft 178 kts 177°
2026-05-05 20:29 40.90554 -111.98836 6280 ft 156 kts 176°
2026-05-05 20:29 40.89497 -111.98713 6058 ft 151 kts 176°
2026-05-05 20:29 40.88477 -111.98594 5861 ft 147 kts 176°
2026-05-05 20:30 40.87451 -111.98474 5671 ft 148 kts 176°
2026-05-05 20:30 40.86417 -111.98354 5467 ft 152 kts 178°
2026-05-05 20:30 40.85355 -111.98232 5272 ft 153 kts 178°
2026-05-05 20:30 40.84312 -111.98115 5045 ft 148 kts 177°
2026-05-05 20:31 40.83292 -111.97994 4824 ft 145 kts 176°
2026-05-05 20:31 40.82289 -111.97888 4648 ft 144 kts 174°
2026-05-05 20:31 40.81325 -111.97770 4409 ft 138 kts 174°
2026-05-05 20:31 40.80370 -111.97654 4244 ft 135 kts 174°
2026-05-05 20:32 40.79501 -111.97553 4235 ft 110 kts 174°
2026-05-05 20:32 40.78943 -111.97489 4237 ft 53 kts 175°
2026-05-05 20:32 40.78722 -111.97464 4237 ft 14 kts 178°
2026-05-05 20:32 40.78617 -111.97488 4236 ft 18 kts 193°
2026-05-05 20:33 40.78495 -111.97550 4236 ft 19 kts 207°
2026-05-05 20:33 40.78451 -111.97706 4236 ft 21 kts 271°
2026-05-05 20:33 40.78449 -111.97867 4236 ft 11 kts 246°
2026-05-05 20:33 40.78408 -111.97881 4236 ft 4 kts 174°
2026-05-05 20:34 40.78389 -111.97878 4236 ft 0 kts 174°